Date String (YYYY-MM-DD hh:mm:ss) UTC,Instrument flags,Ambient pressure (hPa),Sample flow (lpm),Bypass flow (lpm),Sample temperature (°C),Ambient temperature (°C),ASC tube jacket temperature (°C),LED temperature (°C),Box temperature (°C),Sample RH (%),Span deviation,Mass concentration (μg/m³),Mass concentration (μg/m³),Mass concentration (μg/m³)
DateTimeUTC,F1_M11,P_M11,Q1_M11,Q2_M11,T1_M11,T2_M11,T3_M11,T4_M11,T5_M11,U1_M11,ZSPAN_M11,X0_M11,X2_M11,X1_M11
2023-05-29 16:00:00,,0829.4,5.01,0.00,29.7,27.2,00.0,38.1,31.1,25.6,0000.0,0010.15,0004.61,0003.70
2023-05-29 16:01:00,,0829.4,5.01,0.00,29.7,27.4,00.0,38.1,31.2,25.3,0000.0,0010.49,0004.66,0003.71
2023-05-29 16:02:00,,0829.4,4.99,0.00,29.7,27.5,00.0,38.1,31.2,25.9,0000.0,0010.20,0004.67,0003.72
2023-05-29 16:03:00,,0829.3,4.99,0.00,29.7,27.7,00.0,38.1,31.2,26.5,0000.0,0009.99,0004.69,0003.75
2023-05-29 16:04:00,,0829.4,4.99,0.00,29.7,27.8,00.0,38.0,31.2,26.9,0000.0,0009.77,0004.76,0003.79
2023-05-29 16:05:00,,0829.3,5.00,0.00,29.7,27.9,00.0,38.0,31.2,26.6,0000.0,0009.31,0004.76,0003.80
2023-05-29 16:06:00,,0829.3,5.01,0.00,29.7,28.0,00.0,38.0,31.3,27.1,0000.0,0009.31,0004.78,0003.82
2023-05-29 16:07:00,,0829.3,5.01,0.00,29.7,28.0,00.0,38.0,31.3,27.9,0000.0,0009.32,0004.79,0003.83
2023-05-29 16:08:00,,0829.3,5.00,0.00,29.7,28.1,00.0,38.0,31.3,27.3,0000.0,0009.23,0004.78,0003.83
2023-05-29 16:09:00,,0829.2,4.99,0.00,29.7,28.1,00.0,38.1,31.3,27.2,0000.0,0009.53,0004.77,0003.84
2023-05-29 16:10:00,,0829.3,4.99,0.00,29.7,28.2,00.0,38.1,31.3,27.8,0000.0,0009.56,0004.78,0003.84
2023-05-29 16:11:00,,0829.3,4.99,0.00,29.7,28.2,00.0,38.1,31.4,27.7,0000.0,0009.52,0004.81,0003.85
2023-05-29 16:12:00,,0829.3,5.00,0.00,29.8,28.3,00.0,38.1,31.4,26.9,0000.0,0009.20,0004.80,0003.85
2023-05-29 16:13:00,,0829.3,5.00,0.00,29.8,28.3,00.0,38.1,31.4,27.9,0000.0,0009.83,0004.83,0003.85
2023-05-29 16:14:00,,0829.3,5.00,0.00,29.8,28.3,00.0,38.1,31.4,27.0,0000.0,0010.48,0004.82,0003.84
2023-05-29 16:15:00,,0829.2,4.99,0.00,29.8,27.8,00.0,38.1,31.4,26.9,0000.0,0010.57,0004.79,0003.84
2023-05-29 16:16:00,,0829.2,5.00,0.00,29.8,26.2,00.0,38.0,31.1,26.8,0000.0,0010.53,0004.77,0003.84
2023-05-29 16:17:00,,0829.2,5.00,0.00,29.7,25.5,00.0,37.9,31.0,27.5,0000.0,0010.51,0004.76,0003.84
2023-05-29 16:18:00,,0829.2,5.01,0.00,29.6,25.7,00.0,37.9,30.9,27.4,0000.0,0010.53,0004.71,0003.82
2023-05-29 16:19:00,,0829.2,5.01,0.00,29.5,25.9,00.0,37.9,30.9,26.5,0000.0,0010.70,0004.73,0003.82
2023-05-29 16:20:00,,0829.2,4.99,0.00,29.5,26.2,00.0,37.9,30.9,26.7,0000.0,0010.50,0004.74,0003.83
2023-05-29 16:21:00,,0829.2,5.00,0.00,29.5,26.6,00.0,37.9,30.9,26.8,0000.0,0010.23,0004.76,0003.83
2023-05-29 16:22:00,,0829.2,5.00,0.00,29.4,26.8,00.0,37.8,30.9,26.7,0000.0,0010.71,0004.76,0003.83
2023-05-29 16:23:00,,0829.2,5.00,0.00,29.4,27.1,00.0,37.8,31.0,26.9,0000.0,0011.68,0004.79,0003.83
2023-05-29 16:24:00,,0829.2,5.00,0.00,29.4,27.3,00.0,37.8,31.0,26.6,0000.0,0011.67,0004.77,0003.84
2023-05-29 16:25:00,,0829.2,4.99,0.00,29.4,27.4,00.0,37.8,31.0,27.0,0000.0,0011.14,0004.77,0003.84
2023-05-29 16:26:00,,0829.2,4.99,0.00,29.4,27.6,00.0,37.8,31.0,26.7,0000.0,0011.26,0004.76,0003.84
2023-05-29 16:27:00,,0829.1,5.00,0.00,29.5,27.7,00.0,37.8,31.1,26.0,0000.0,0011.34,0004.79,0003.83
2023-05-29 16:28:00,,0829.1,5.00,0.00,29.5,27.8,00.0,37.8,31.1,26.3,0000.0,0011.34,0004.78,0003.82
2023-05-29 16:29:00,,0829.1,5.00,0.00,29.5,27.8,00.0,37.8,31.1,26.3,0000.0,0011.26,0004.77,0003.82
2023-05-29 16:30:00,,0829.1,5.01,0.00,29.5,27.9,00.0,37.8,31.1,26.8,0000.0,0011.30,0004.77,0003.83
2023-05-29 16:31:00,,0829.1,5.00,0.00,29.5,28.0,00.0,37.8,31.2,27.2,0000.0,0011.88,0004.78,0003.84
2023-05-29 16:32:00,,0829.1,5.00,0.00,29.5,28.0,00.0,37.9,31.2,28.5,0000.0,0012.46,0004.78,0003.84
2023-05-29 16:33:00,,0829.1,4.98,0.00,29.6,28.1,00.0,37.9,31.2,29.0,0000.0,0012.31,0004.81,0003.85
2023-05-29 16:34:00,,0829.1,5.00,0.00,29.6,28.1,00.0,37.9,31.2,28.1,0000.0,0011.43,0004.80,0003.86
2023-05-29 16:35:00,,0829.1,5.01,0.00,29.6,28.1,00.0,37.9,31.2,28.5,0000.0,0010.80,0004.80,0003.87
2023-05-29 16:36:00,,0829.1,5.01,0.00,29.6,28.2,00.0,37.9,31.3,29.1,0000.0,0010.44,0004.82,0003.89
2023-05-29 16:37:00,,0829.1,5.00,0.00,29.6,28.2,00.0,37.9,31.3,29.2,0000.0,0010.27,0004.85,0003.89
2023-05-29 16:38:00,,0829.0,4.99,0.00,29.7,28.1,00.0,37.9,31.3,28.0,0000.0,0010.10,0004.84,0003.91
2023-05-29 16:39:00,,0829.0,4.99,0.00,29.6,26.8,00.0,37.9,31.2,26.8,0000.0,0010.15,0004.84,0003.91
2023-05-29 16:40:00,,0829.0,5.01,0.00,29.6,25.4,00.0,37.8,30.9,26.9,0000.0,0010.58,0004.96,0003.93
2023-05-29 16:41:00,,0829.0,5.01,0.00,29.5,25.2,00.0,37.7,30.8,28.8,0000.0,0011.08,0004.99,0003.95
2023-05-29 16:42:00,,0829.0,5.00,0.00,29.4,25.5,00.0,37.7,30.7,28.5,0000.0,0011.01,0004.97,0003.95
2023-05-29 16:43:00,,0829.0,4.99,0.00,29.3,25.9,00.0,37.7,30.7,28.8,0000.0,0010.13,0004.98,0003.96
2023-05-29 16:44:00,,0829.0,4.99,0.00,29.3,26.2,00.0,37.7,30.8,27.8,0000.0,0010.23,0005.03,0003.96
2023-05-29 16:45:00,,0829.0,5.01,0.00,29.3,26.5,00.0,37.7,30.8,28.5,0000.0,0010.17,0005.03,0003.96
2023-05-29 16:46:00,,0828.9,5.01,0.00,29.3,26.8,00.0,37.7,30.8,28.6,0000.0,0010.22,0005.03,0003.95
2023-05-29 16:47:00,,0828.9,5.00,0.00,29.3,27.1,00.0,37.7,30.9,28.5,0000.0,0010.23,0005.02,0003.94
2023-05-29 16:48:00,,0828.9,4.99,0.00,29.3,27.3,00.0,37.7,30.9,27.6,0000.0,0010.24,0004.99,0003.93
2023-05-29 16:49:00,,0828.8,4.99,0.00,29.3,27.4,00.0,37.7,30.9,28.3,0000.0,0010.33,0004.97,0003.92
2023-05-29 16:50:00,,0828.8,5.00,0.00,29.3,27.6,00.0,37.7,31.0,28.3,0000.0,0010.83,0005.00,0003.92
2023-05-29 16:51:00,,0828.8,5.00,0.00,29.3,27.7,00.0,37.7,31.0,28.2,0000.0,0010.96,0004.97,0003.90
2023-05-29 16:52:00,,0828.8,5.02,0.00,29.3,27.8,00.0,37.7,31.0,28.5,0000.0,0010.95,0004.92,0003.89
2023-05-29 16:53:00,,0828.9,5.00,0.00,29.4,27.8,00.0,37.7,31.0,28.8,0000.0,0010.16,0004.89,0003.89
2023-05-29 16:54:00,,0829.0,4.99,0.00,29.4,27.9,00.0,37.7,31.1,28.6,0000.0,0010.46,0004.88,0003.88
2023-05-29 16:55:00,,0828.9,5.00,0.00,29.4,28.0,00.0,37.7,31.1,28.6,0000.0,0010.77,0004.83,0003.86
2023-05-29 16:56:00,,0829.0,4.99,0.00,29.4,28.0,00.0,37.7,31.1,29.0,0000.0,0010.56,0004.74,0003.85
2023-05-29 16:57:00,,0829.0,5.00,0.00,29.5,28.0,00.0,37.7,31.1,29.0,0000.0,0010.62,0004.75,0003.85
2023-05-29 16:58:00,,0828.9,4.99,0.00,29.5,28.1,00.0,37.8,31.2,28.2,0000.0,0010.56,0004.71,0003.84
2023-05-29 16:59:00,,0829.0,5.00,0.00,29.5,28.1,00.0,37.8,31.2,28.0,0000.0,0010.62,0004.71,0003.83
